Moses Lake, WA

6:42 PM PDT on May 22, 2018 (GMT -0700)
Grant County International

Weather History for KMWH - March, 2013

Change the Weather History Date:

Tuesday, March 19, 2013

  Actual Average Record
Temperature  
Mean Temperature 40 °F 44 °F  
Max Temperature 56 °F 56 °F 69 °F (1997)
Min Temperature 24 °F 33 °F 21 °F (2002)
Degree Days  
Heating Degree Days 25 20  
Month to date heating degree days 381 437  
Since 1 July heating degree days 4500 4942  
Cooling Degree Days 0 0  
Month to date cooling degree days 0 0  
Year to date cooling degree days 0 0  
Moisture  
Dew Point 23 °F    
Average Humidity 52    
Maximum Humidity 82    
Minimum Humidity 22    
Precipitation  
Precipitation 0.01 in 0.03 in 0.17 in (2005)
Month to date precipitation 0.52 0.42  
Year to date precipitation 0.97 2.36  
Sea Level Pressure  
Sea Level Pressure 30.11 in    
Wind  
Wind Speed 6 mph (NNE)    
Max Wind Speed 15 mph    
Max Gust Speed 18 mph    
Visibility 10 miles    
Events Rain    
T = Trace of Precipitation, MM = Missing Value Source: NWS Daily Summary

Daily Weather History Graph

Daily Weather History Graph

Search for Another Location

Airport or City:

Astronomy

Mar. 19, 2013 Rise Set
Actual Time 7:01 AM PDT 7:09 PM PDT
Civil Twilight 6:31 AM PDT 7:39 PM PDT
Nautical Twilight 5:55 AM PDT 8:15 PM PDT
Astronomical Twilight 5:18 AM PDT 8:52 PM PDT
Moon 11:34 AM PDT (3/19) 2:21 AM PDT (3/19)
Length of Visible Light 13h 08m
Length of Day
12h 07m
Waxing Crescent, 51% of the Moon is Illuminated
Mar 19
Waxing Crescent
Mar 27
Full
Apr 2
Last Quarter
Apr 10
New
Apr 18
First Quarter

Hourly Weather History & Observations

Time (PDT) Temp. Windchill Dew Point Humidity Pressure Visibility Wind Dir Wind Speed Gust Speed Precip Events Conditions
12:52 AM 33.1 °F - 19.9 °F 59% 30.22 in 10.0 mi Calm Calm - N/A   Clear
1:52 AM 32.0 °F 28.7 °F 19.9 °F 61% 30.23 in 10.0 mi South 3.5 mph - N/A   Clear
2:52 AM 32.0 °F 28.7 °F 19.9 °F 61% 30.24 in 10.0 mi SW 3.5 mph - N/A   Clear
3:52 AM 27.0 °F - 19.0 °F 72% 30.22 in 10.0 mi Calm Calm - N/A   Clear
4:52 AM 28.0 °F - 19.0 °F 69% 30.24 in 10.0 mi Calm Calm - N/A   Clear
5:52 AM 26.1 °F 21.9 °F 19.0 °F 75% 30.26 in 10.0 mi NNE 3.5 mph - N/A   Clear
6:52 AM 24.1 °F 18.2 °F 18.0 °F 77% 30.27 in 10.0 mi NNE 4.6 mph - N/A   Clear
7:52 AM 27.0 °F 19.5 °F 19.9 °F 75% 30.27 in 10.0 mi North 6.9 mph - N/A   Clear
8:52 AM 33.1 °F 25.5 °F 21.9 °F 64% 30.26 in 10.0 mi NNE 9.2 mph - N/A   Clear
9:52 AM 37.9 °F 32.7 °F 21.9 °F 53% 30.26 in 10.0 mi NE 6.9 mph - N/A   Clear
10:52 AM 42.1 °F 40.2 °F 21.0 °F 43% 30.25 in 10.0 mi Variable 3.5 mph - N/A   Clear
11:52 AM 46.0 °F 43.1 °F 21.0 °F 37% 30.23 in 10.0 mi NE 5.8 mph - N/A   Clear
12:52 PM 48.0 °F - 21.9 °F 36% 30.18 in 10.0 mi NNW 3.5 mph - N/A   Clear
1:52 PM 53.1 °F - 21.0 °F 29% 30.14 in 10.0 mi ENE 6.9 mph - N/A   Mostly Cloudy
2:52 PM 55.0 °F - 19.0 °F 24% 30.08 in 10.0 mi East 8.1 mph - N/A   Overcast
3:52 PM 55.9 °F - 17.1 °F 22% 30.03 in 10.0 mi ENE 6.9 mph - N/A   Overcast
4:52 PM 55.0 °F - 19.0 °F 24% 30.00 in 10.0 mi South 6.9 mph - N/A   Overcast
5:52 PM 52.0 °F - 24.1 °F 34% 29.98 in 10.0 mi Calm Calm - N/A   Overcast
6:52 PM 52.0 °F - 24.1 °F 34% 29.95 in 10.0 mi WSW 11.5 mph - N/A   Overcast
7:52 PM 52.0 °F - 28.0 °F 40% 29.91 in 10.0 mi Calm Calm - N/A   Overcast
8:52 PM 48.9 °F - 32.0 °F 52% 29.89 in 10.0 mi NNW 9.2 mph - 0.00 in Rain Light Rain
9:52 PM 45.0 °F 39.3 °F 37.0 °F 74% 29.86 in 10.0 mi WNW 11.5 mph - 0.01 in   Overcast
10:52 PM 43.0 °F 36.0 °F 37.0 °F 80% 29.82 in 10.0 mi North 13.8 mph - N/A   Overcast
11:52 PM 42.1 °F 35.7 °F 37.0 °F 82% 29.76 in 10.0 mi North 11.5 mph - 0.00 in   Overcast